User: anonymous   Login
Location: Peebles
(55.6412°N, 3.1714°W)
Time: 03:28:34
(UTC+01:00)
Language:

deb r/b Ablestar - Orbit

View from above orbital plane
View from above orbital plane
View from above satellite
View from above satellite

Ground track
Ground track

The orbit data is extracted from the following two-line orbital elements,

1 00474U 61015FL  22181.41991487  .00003467  00000-0  43066-3 0  9997
2 00474  66.2437 178.4988 0011332  50.8555  97.4617 14.83916884176008
Epoch (UTC): 30 June 2022 10:04:40
Eccentricity: 0.0011332
inclination: 66.2437°
perigee height: 609 km
apogee height: 625 km
right ascension of ascending node: 178.4988°
argument of perigee: 50.8555°
revolutions per day: 14.83916884
mean anomaly at epoch: 97.4617°
orbit number at epoch: 17600

The dashed part of the orbit path shows where the satellite is in the earth's shadow,  

DLR